DKH1528 ZMCK-ZJSY

Flight info

Callsign DKH1528
Flight time N/A
Altitude 35100
Route ISMIN2C ISMIN Y655 NOLAD V674 NIXAL B208 SQ/K0839S1100 W45 LYA/K0833S1070 W45 ML/K0841S1100 W45 RUXIL W53 YIH V88 ONEMI R343 WUY/K0828S1130 W169 ISGEG/K0828S1100 W169 RUNEG/K0824S1130 V41 DABUB DABUB8YA
Aircraft A320/M-SDE3FGHIRWY/LB1

Departure

Time 2026-04-20 07:37
Airport Ulaanbaatar Chinggis Khaan International Airport (ZMCK)

Arrival

Time N/A
Airport Sanya Phoenix International Airport (ZJSY)
Time Latitude Longitude Altitude Speed Heading
2026-04-20 07:11 47.65040 106.82084 4502 ft 0 kts 35°
2026-04-20 07:19 47.65040 106.82083 4502 ft 0 kts 35°
2026-04-20 07:26 47.65037 106.82081 4502 ft 2 kts 36°
2026-04-20 07:26 47.65024 106.82066 4503 ft 2 kts 36°
2026-04-20 07:26 47.65011 106.82052 4501 ft 2 kts 38°
2026-04-20 07:27 47.64998 106.82036 4501 ft 2 kts 39°
2026-04-20 07:27 47.64985 106.82021 4502 ft 2 kts 43°
2026-04-20 07:27 47.64973 106.82003 4504 ft 2 kts 52°
2026-04-20 07:27 47.64965 106.81982 4504 ft 2 kts 84°
2026-04-20 07:28 47.64965 106.81964 4502 ft 1 kts 106°
2026-04-20 07:28 47.64965 106.81963 4502 ft 0 kts 106°
2026-04-20 07:29 47.64965 106.81962 4502 ft 0 kts 106°
2026-04-20 07:29 47.64964 106.81968 4502 ft 1 kts 106°
2026-04-20 07:30 47.64962 106.81977 4504 ft 1 kts 106°
2026-04-20 07:30 47.64959 106.81999 4502 ft 4 kts 104°
2026-04-20 07:30 47.64947 106.82063 4503 ft 9 kts 104°
2026-04-20 07:30 47.64929 106.82171 4502 ft 13 kts 104°
2026-04-20 07:31 47.64903 106.82318 4502 ft 17 kts 104°
2026-04-20 07:31 47.64871 106.82493 4502 ft 11 kts 104°
2026-04-20 07:31 47.64816 106.82590 4501 ft 15 kts 153°
2026-04-20 07:31 47.64761 106.82640 4500 ft 12 kts 134°
2026-04-20 07:32 47.64731 106.82773 4495 ft 15 kts 105°
2026-04-20 07:32 47.64703 106.82936 4492 ft 18 kts 104°
2026-04-20 07:32 47.64671 106.83112 4492 ft 18 kts 104°
2026-04-20 07:32 47.64641 106.83284 4491 ft 17 kts 104°
2026-04-20 07:33 47.64609 106.83462 4491 ft 18 kts 104°
2026-04-20 07:33 47.64579 106.83636 4495 ft 18 kts 105°
2026-04-20 07:33 47.64547 106.83816 4494 ft 19 kts 104°
2026-04-20 07:33 47.64513 106.84007 4492 ft 20 kts 105°
2026-04-20 07:34 47.64477 106.84211 4496 ft 21 kts 104°
2026-04-20 07:34 47.64426 106.84326 4494 ft 13 kts 153°
2026-04-20 07:34 47.64393 106.84331 4493 ft 0 kts 191°
2026-04-20 07:35 47.64373 106.84325 4494 ft 5 kts 191°
2026-04-20 07:35 47.64326 106.84305 4495 ft 9 kts 200°
2026-04-20 07:35 47.64299 106.84223 4493 ft 10 kts 283°
2026-04-20 07:35 47.64303 106.84203 4493 ft 0 kts 284°
2026-04-20 07:36 47.64303 106.84199 4492 ft 3 kts 284°
2026-04-20 07:36 47.64343 106.83976 4491 ft 53 kts 285°
2026-04-20 07:36 47.64489 106.83150 4492 ft 110 kts 284°
2026-04-20 07:36 47.64724 106.81818 4495 ft 155 kts 285°
2026-04-20 07:37 47.64993 106.80213 4895 ft 160 kts 283°
2026-04-20 07:37 47.65251 106.78619 5596 ft 157 kts 285°
2026-04-20 07:37 47.65525 106.77056 6243 ft 157 kts 285°
2026-04-20 07:37 47.65805 106.75498 6679 ft 156 kts 285°
2026-04-20 07:38 47.66090 106.73947 7105 ft 156 kts 286°
2026-04-20 07:38 47.66373 106.72392 7521 ft 156 kts 285°
2026-04-20 07:38 47.66381 106.70757 7753 ft 173 kts 249°
2026-04-20 07:38 47.65425 106.69489 7885 ft 207 kts 204°
2026-04-20 07:39 47.63930 106.69005 8029 ft 232 kts 196°
2026-04-20 07:39 47.62270 106.68627 8226 ft 251 kts 194°
2026-04-20 07:39 47.60458 106.68245 8411 ft 275 kts 194°
2026-04-20 07:39 47.58515 106.67837 8883 ft 287 kts 193°
2026-04-20 07:40 47.56520 106.67413 9585 ft 291 kts 193°
2026-04-20 07:40 47.54502 106.66973 10182 ft 299 kts 194°
2026-04-20 07:40 47.52366 106.66485 10318 ft 321 kts 194°
2026-04-20 07:40 47.50088 106.65951 10483 ft 341 kts 194°
2026-04-20 07:41 47.47713 106.65399 10990 ft 349 kts 193°
2026-04-20 07:41 47.45295 106.64840 11620 ft 353 kts 194°
2026-04-20 07:41 47.42858 106.64276 12227 ft 357 kts 194°
2026-04-20 07:41 47.40391 106.63704 12843 ft 360 kts 194°
2026-04-20 07:42 47.37900 106.63127 13437 ft 365 kts 194°
2026-04-20 07:42 47.35364 106.62659 13994 ft 372 kts 187°
2026-04-20 07:42 47.32746 106.62839 14534 ft 382 kts 175°
2026-04-20 07:42 47.30135 106.63729 15072 ft 388 kts 168°
2026-04-20 07:43 47.27520 106.64798 15611 ft 392 kts 168°
2026-04-20 07:43 47.24885 106.65870 16124 ft 395 kts 168°
2026-04-20 07:43 47.22222 106.66949 16654 ft 399 kts 168°
2026-04-20 07:43 47.19536 106.68030 17175 ft 402 kts 168°
2026-04-20 07:44 47.16826 106.69120 17709 ft 405 kts 168°
2026-04-20 07:44 47.14094 106.70216 18224 ft 409 kts 168°
2026-04-20 07:44 47.11335 106.71322 18672 ft 412 kts 168°
2026-04-20 07:44 47.08561 106.72434 19127 ft 415 kts 168°
2026-04-20 07:45 47.05764 106.73552 19581 ft 418 kts 168°
2026-04-20 07:45 47.02980 106.74662 20028 ft 421 kts 168°
2026-04-20 07:45 47.00141 106.75790 20477 ft 424 kts 168°
2026-04-20 07:45 46.97290 106.76924 20940 ft 427 kts 168°
2026-04-20 07:46 46.94370 106.78090 21387 ft 430 kts 168°
2026-04-20 07:46 46.91518 106.79229 21810 ft 433 kts 168°
2026-04-20 07:46 46.88603 106.80424 22229 ft 437 kts 165°
2026-04-20 07:46 46.85773 106.82128 22642 ft 443 kts 155°
2026-04-20 07:47 46.83137 106.84512 23050 ft 449 kts 144°
2026-04-20 07:47 46.80784 106.87526 23443 ft 452 kts 134°
2026-04-20 07:47 46.78746 106.91036 23771 ft 455 kts 128°
2026-04-20 07:47 46.76754 106.94644 24089 ft 458 kts 128°
2026-04-20 07:48 46.74752 106.98263 24415 ft 460 kts 129°
2026-04-20 07:48 46.72731 107.01898 24733 ft 462 kts 129°
2026-04-20 07:48 46.70697 107.05546 25036 ft 465 kts 129°
2026-04-20 07:48 46.68655 107.09206 25337 ft 467 kts 129°
2026-04-20 07:49 46.66602 107.12886 25627 ft 469 kts 129°
2026-04-20 07:49 46.64539 107.16584 25918 ft 472 kts 129°
2026-04-20 07:49 46.62466 107.20295 26215 ft 474 kts 129°
2026-04-20 07:49 46.60377 107.24019 26498 ft 476 kts 129°
2026-04-20 07:50 46.58276 107.27753 26773 ft 478 kts 129°
2026-04-20 07:50 46.56164 107.31504 27024 ft 481 kts 129°
2026-04-20 07:50 46.54043 107.35274 27300 ft 483 kts 129°
2026-04-20 07:50 46.51918 107.39056 27569 ft 485 kts 129°
2026-04-20 07:51 46.49781 107.42854 27831 ft 487 kts 129°
2026-04-20 07:51 46.47629 107.46666 28084 ft 489 kts 129°
2026-04-20 07:51 46.45468 107.50484 28329 ft 491 kts 129°
2026-04-20 07:51 46.43292 107.54323 28568 ft 493 kts 129°
2026-04-20 07:52 46.41113 107.58168 28805 ft 495 kts 129°
2026-04-20 07:52 46.38924 107.62031 29031 ft 497 kts 129°
2026-04-20 07:52 46.36725 107.65899 29251 ft 499 kts 129°
2026-04-20 07:52 46.34511 107.69782 29470 ft 501 kts 129°
2026-04-20 07:53 46.32292 107.73671 29672 ft 502 kts 129°
2026-04-20 07:53 46.30063 107.77575 29883 ft 504 kts 129°
2026-04-20 07:53 46.27820 107.81496 30056 ft 506 kts 129°
2026-04-20 07:53 46.25606 107.85358 30269 ft 506 kts 130°
2026-04-20 07:54 46.23329 107.89321 30498 ft 506 kts 130°
2026-04-20 07:54 46.21081 107.93225 30719 ft 506 kts 130°
2026-04-20 07:54 46.18858 107.97087 30931 ft 506 kts 130°
2026-04-20 07:54 46.16606 108.01001 31132 ft 507 kts 130°
2026-04-20 07:55 46.14353 108.04907 31351 ft 507 kts 130°
2026-04-20 07:55 46.12094 108.08820 31559 ft 507 kts 130°
2026-04-20 07:55 46.09834 108.12723 31783 ft 508 kts 130°
2026-04-20 07:55 46.07565 108.16627 31976 ft 508 kts 130°
2026-04-20 07:56 46.05287 108.20548 32185 ft 509 kts 130°
2026-04-20 07:56 46.03020 108.24458 32387 ft 509 kts 130°
2026-04-20 07:56 46.00748 108.28376 32574 ft 510 kts 130°
2026-04-20 07:56 45.98468 108.32299 32775 ft 510 kts 131°
2026-04-20 07:57 45.96185 108.36214 32968 ft 511 kts 131°
2026-04-20 07:57 45.93897 108.40126 33180 ft 511 kts 131°
2026-04-20 07:57 45.91638 108.43977 33381 ft 511 kts 131°
2026-04-20 07:57 45.89344 108.47885 33585 ft 512 kts 131°
2026-04-20 07:58 45.87055 108.51790 33789 ft 512 kts 131°
2026-04-20 07:58 45.84763 108.55697 33978 ft 512 kts 131°
2026-04-20 07:58 45.82468 108.59602 34149 ft 512 kts 131°
2026-04-20 07:58 45.80146 108.63538 34330 ft 512 kts 131°
2026-04-20 07:59 45.77865 108.67397 34491 ft 512 kts 131°
2026-04-20 07:59 45.75440 108.71121 34650 ft 510 kts 140°
2026-04-20 07:59 45.72714 108.74338 34799 ft 507 kts 149°
2026-04-20 07:59 45.69765 108.77063 34953 ft 504 kts 153°
2026-04-20 08:00 45.63811 108.82356 35033 ft 503 kts 152°
2026-04-20 08:00 45.57873 108.87659 35033 ft 503 kts 152°
2026-04-20 08:01 45.51938 108.92955 35040 ft 503 kts 153°
2026-04-20 08:01 45.45982 108.98221 35023 ft 503 kts 153°
2026-04-20 08:02 45.40034 109.03465 35038 ft 503 kts 153°
2026-04-20 08:02 45.34084 109.08713 35033 ft 503 kts 153°
2026-04-20 08:03 45.28130 109.13952 35035 ft 503 kts 153°
2026-04-20 08:03 45.22172 109.19174 35024 ft 503 kts 153°
2026-04-20 08:04 45.16211 109.24391 35028 ft 503 kts 153°
2026-04-20 08:04 45.10255 109.29608 35040 ft 503 kts 153°
2026-04-20 08:05 45.04293 109.34803 35045 ft 503 kts 153°
2026-04-20 08:05 44.98336 109.39976 35049 ft 503 kts 153°
2026-04-20 08:06 44.92413 109.45103 35054 ft 503 kts 153°
2026-04-20 08:06 44.86448 109.50257 35053 ft 503 kts 153°
2026-04-20 08:07 44.80483 109.55405 35052 ft 503 kts 153°
2026-04-20 08:07 44.74519 109.60533 35051 ft 502 kts 153°
2026-04-20 08:08 44.68550 109.65642 35054 ft 502 kts 154°
2026-04-20 08:08 44.62578 109.70753 35050 ft 502 kts 154°
2026-04-20 08:09 44.56610 109.75857 35058 ft 503 kts 154°
2026-04-20 08:09 44.50638 109.80957 35060 ft 502 kts 154°
2026-04-20 08:10 44.44661 109.86034 35054 ft 502 kts 154°
2026-04-20 08:10 44.38680 109.91093 35062 ft 502 kts 154°
2026-04-20 08:11 44.32699 109.96156 35066 ft 503 kts 154°
2026-04-20 08:11 44.26757 110.01176 35068 ft 502 kts 154°
2026-04-20 08:12 44.20773 110.06212 35072 ft 502 kts 154°
2026-04-20 08:12 44.14788 110.11238 35075 ft 502 kts 154°
2026-04-20 08:13 44.08805 110.16259 35072 ft 502 kts 154°
2026-04-20 08:13 44.02823 110.21262 35076 ft 502 kts 154°
2026-04-20 08:14 43.96836 110.26241 35078 ft 502 kts 154°
2026-04-20 08:14 43.90847 110.31221 35084 ft 501 kts 154°
2026-04-20 08:15 43.84864 110.36194 35085 ft 501 kts 155°
2026-04-20 08:15 43.78880 110.41151 35089 ft 501 kts 155°
2026-04-20 08:16 43.72890 110.46093 35090 ft 501 kts 155°
2026-04-20 08:16 43.66898 110.51030 35088 ft 501 kts 155°
2026-04-20 08:17 43.60905 110.55954 35088 ft 501 kts 155°
2026-04-20 08:17 43.54951 110.60847 35094 ft 502 kts 155°
2026-04-20 08:18 43.48951 110.65761 35092 ft 502 kts 155°
2026-04-20 08:18 43.42945 110.70655 35095 ft 502 kts 156°
2026-04-20 08:19 43.36931 110.75545 35097 ft 502 kts 156°
2026-04-20 08:19 43.30920 110.80435 35094 ft 502 kts 156°
2026-04-20 08:20 43.24906 110.85313 35094 ft 502 kts 156°
2026-04-20 08:20 43.18683 110.89408 35091 ft 488 kts 171°
2026-04-20 08:21 43.13301 110.91687 35086 ft 487 kts 172°
2026-04-20 08:21 43.06817 110.94404 35084 ft 488 kts 172°
2026-04-20 08:22 43.00326 110.97140 35081 ft 489 kts 172°
2026-04-20 08:22 42.93830 110.99890 35081 ft 489 kts 172°
2026-04-20 08:23 42.87320 111.02623 35081 ft 490 kts 172°
2026-04-20 08:23 42.80802 111.05343 35081 ft 490 kts 172°
2026-04-20 08:24 42.74274 111.08080 35091 ft 491 kts 172°
2026-04-20 08:24 42.67741 111.10816 35077 ft 492 kts 173°
2026-04-20 08:25 42.61194 111.13546 35083 ft 492 kts 173°
2026-04-20 08:25 42.54641 111.16263 35087 ft 493 kts 173°
2026-04-20 08:26 42.48082 111.18982 35095 ft 493 kts 173°
2026-04-20 08:26 42.41515 111.21709 35097 ft 494 kts 173°
2026-04-20 08:27 42.34942 111.24431 35101 ft 494 kts 173°
2026-04-20 08:27 42.28367 111.27134 35107 ft 494 kts 174°
2026-04-20 08:28 42.21780 111.29824 35110 ft 494 kts 174°
2026-04-20 08:28 42.15242 111.32514 35117 ft 495 kts 174°
2026-04-20 08:29 42.08655 111.35239 35125 ft 495 kts 174°
2026-04-20 08:29 42.02058 111.37955 35131 ft 496 kts 174°
2026-04-20 08:30 41.95463 111.40653 35137 ft 495 kts 174°
2026-04-20 08:30 41.88866 111.43344 35142 ft 496 kts 174°
2026-04-20 08:31 41.82266 111.46042 35146 ft 496 kts 174°
2026-04-20 08:31 41.75668 111.48727 35149 ft 496 kts 175°
2026-04-20 08:32 41.69067 111.51411 35149 ft 496 kts 175°
2026-04-20 08:32 41.62466 111.54094 35157 ft 496 kts 175°
2026-04-20 08:33 41.52565 111.58102 35165 ft 495 kts 175°
2026-04-20 08:34 41.45972 111.60758 35170 ft 495 kts 175°
2026-04-20 08:34 41.39374 111.63408 35172 ft 495 kts 175°
2026-04-20 08:35 41.32781 111.66052 35173 ft 495 kts 175°
2026-04-20 08:35 41.26194 111.68693 35183 ft 494 kts 176°
2026-04-20 08:36 41.19651 111.71311 35184 ft 494 kts 176°
2026-04-20 08:36 41.13062 111.73948 35180 ft 494 kts 176°
2026-04-20 08:37 41.06509 111.76557 35176 ft 494 kts 176°
2026-04-20 08:37 40.99897 111.79177 35167 ft 494 kts 176°
2026-04-20 08:38 40.93319 111.81783 35162 ft 493 kts 177°
2026-04-20 08:38 40.86750 111.84389 35168 ft 493 kts 177°
2026-04-20 08:39 40.80185 111.86980 35184 ft 492 kts 177°
2026-04-20 08:39 40.73635 111.89546 35182 ft 491 kts 177°
2026-04-20 08:40 40.67085 111.91823 35187 ft 483 kts 181°
2026-04-20 08:40 40.60550 111.93595 35193 ft 476 kts 185°
2026-04-20 08:41 40.54048 111.94955 35203 ft 471 kts 187°
2026-04-20 08:41 40.47559 111.96243 35212 ft 472 kts 186°
2026-04-20 08:42 40.41070 111.97640 35222 ft 473 kts 185°
2026-04-20 08:42 40.34579 111.99157 35220 ft 474 kts 184°
2026-04-20 08:43 40.28095 112.00808 35228 ft 475 kts 184°
2026-04-20 08:43 40.21618 112.02454 35226 ft 474 kts 184°
2026-04-20 08:44 40.15148 112.04055 35227 ft 473 kts 185°
2026-04-20 08:44 40.08680 112.05635 35229 ft 473 kts 185°
2026-04-20 08:45 40.02206 112.07217 35234 ft 474 kts 185°
2026-04-20 08:45 39.95725 112.08805 35229 ft 474 kts 185°
2026-04-20 08:46 39.89280 112.10383 35226 ft 475 kts 185°
2026-04-20 08:46 39.82779 112.11961 35217 ft 475 kts 185°
2026-04-20 08:47 39.76268 112.13534 35221 ft 476 kts 185°
2026-04-20 08:47 39.69753 112.15114 35220 ft 476 kts 185°
2026-04-20 08:48 39.63232 112.16695 35219 ft 477 kts 184°
2026-04-20 08:48 39.56707 112.18272 35218 ft 477 kts 184°
2026-04-20 08:49 39.50179 112.19849 35220 ft 477 kts 184°
2026-04-20 08:49 39.43650 112.21444 35212 ft 478 kts 184°
2026-04-20 08:50 39.37115 112.23063 35216 ft 478 kts 184°
2026-04-20 08:50 39.30585 112.24676 35225 ft 478 kts 184°
2026-04-20 08:51 39.24051 112.26271 35221 ft 478 kts 184°
2026-04-20 08:51 39.17515 112.27858 35223 ft 478 kts 184°
2026-04-20 08:52 39.10979 112.29452 35221 ft 478 kts 184°
2026-04-20 08:52 39.04444 112.31052 35220 ft 478 kts 184°
2026-04-20 08:53 38.97902 112.32652 35227 ft 478 kts 183°
2026-04-20 08:53 38.91369 112.34242 35223 ft 478 kts 183°
2026-04-20 08:54 38.84835 112.35816 35226 ft 478 kts 183°
2026-04-20 08:54 38.78306 112.37389 35233 ft 477 kts 183°
2026-04-20 08:55 38.71803 112.38962 35242 ft 475 kts 183°
2026-04-20 08:55 38.65312 112.40523 35243 ft 474 kts 183°
2026-04-20 08:56 38.58847 112.42079 35243 ft 472 kts 183°
2026-04-20 08:56 38.52447 112.43622 35244 ft 470 kts 183°
2026-04-20 08:57 38.46025 112.45157 35244 ft 469 kts 183°
2026-04-20 08:57 38.39624 112.46676 35238 ft 467 kts 182°
2026-04-20 08:58 38.33251 112.48184 35233 ft 465 kts 182°
2026-04-20 08:58 38.26896 112.49683 35238 ft 463 kts 182°
2026-04-20 08:59 38.20570 112.51166 35240 ft 462 kts 182°
2026-04-20 08:59 38.14265 112.52652 35239 ft 460 kts 182°
2026-04-20 09:00 38.07978 112.54131 35242 ft 459 kts 182°
2026-04-20 09:00 38.03822 112.55108 35235 ft 459 kts 182°
2026-04-20 09:01 37.96617 112.56793 35227 ft 458 kts 182°